GFSMW_850_temp_000.txt.gz
Temp
20 20 19 17 16 14 13 12 12 11 11 10 10 10 10 10 10 9 9 8 8 8 8 8 7 7 7 7 6 6 5 6 6 6 6 6 7 7 8 9 9 9 9
19 19 18 17 15 14 13 12 12 11 11 10 10 10 10 10 10 9 9 8 8 7 7 7 7 7 6 6 6 6 6 5 5 5 5 6 6 8 7 7 8 8 8
18 18 17 16 15 14 13 12 12 12 11 11 10 10 10 10 10 9 9 8 8 7 7 7 7 6 6 6 6 6 6 5 5 5 5 5 5 6 6 6 7 7 7
18 17 17 16 15 15 14 13 12 12 12 11 11 10 10 10 9 10 10 9 8 7 7 7 6 6 6 5 5 5 5 5 5 4 5 5 5 5 5 5 6 6 7
17 17 16 16 15 15 14 13 12 12 12 11 11 10 10 10 9 9 9 9 8 8 7 6 6 5 5 5 5 5 5 4 4 4 4 4 4 4 4 5 5 6 6
17 16 16 16 15 15 14 13 12 12 11 11 11 11 10 9 9 8 8 8 7 7 6 5 5 5 4 4 4 3 3 3 3 3 3 3 3 3 4 4 5 5 5
16 16 15 15 15 14 14 14 13 12 12 11 11 10 10 9 8 8 7 7 6 6 5 5 4 4 3 3 3 2 2 2 2 2 2 2 2 2 3 3 3 4 4
17 16 16 15 14 14 13 13 13 13 12 12 11 11 10 9 8 7 6 5 5 4 4 3 2 2 2 2 1 1 1 1 0 1 1 1 1 2 2 3 3 3 4
17 16 15 15 14 13 13 12 12 12 12 12 11 11 10 8 7 6 5 4 4 2 2 1 1 1 1 0 0 -0 -0 -0 -0 -0 -0 0 0 1 1 1 2 2 2
16 16 15 14 13 12 12 11 11 11 11 10 10 9 9 7 6 4 3 2 2 0 -0 0 -0 0 0 -0 -0 -1 -1 -1 -1 -1 -1 -1 -0 -0 0 1 1 2 2
16 15 14 13 12 11 11 10 10 10 10 9 8 8 7 5 4 3 2 0 -1 -2 -2 -1 0 -0 -0 -1 -1 -1 -1 -2 -1 -1 -1 -1 -1 -1 -1 -0 -0 0 1
15 14 13 13 11 10 9 9 9 9 8 7 6 5 4 3 2 1 0 -1 -2 -2 -1 -1 -1 -1 -1 -2 -2 -2 -2 -2 -2 -2 -2 -2 -2 -1 -1 -1 -1 -0 0
14 13 12 11 10 9 9 7 8 8 7 5 4 3 2 1 1 0 -0 -1 -1 -1 -1 -1 -2 -2 -2 -2 -3 -3 -3 -3 -3 -3 -3 -3 -3 -3 -2 -2 -2 -1 -1
13 12 11 9 8 8 7 7 7 7 6 4 3 2 1 1 0 -1 -2 -2 -1 -2 -2 -2 -2 -3 -3 -3 -3 -3 -3 -4 -4 -4 -4 -4 -4 -4 -4 -4 -3 -3 -3
11 9 8 8 7 6 6 6 6 6 5 4 3 2 1 0 -1 -2 -2 -1 -2 -2 -2 -3 -3 -3 -3 -4 -4 -4 -4 -4 -5 -5 -5 -5 -5 -5 -6 -6 -5 -5 -5
8 6 7 6 5 5 5 4 5 5 4 3 2 1 -1 -1 -2 -2 -1 -2 -2 -2 -3 -3 -4 -4 -4 -4 -5 -5 -5 -6 -7 -7 -8 -8 -8 -8 -8 -8 -7 -7 -6
6 7 6 5 5 5 4 3 3 3 3 2 0 -1 -2 -2 -1 -1 -2 -2 -2 -3 -3 -4 -4 -5 -5 -6 -6 -6 -7 -7 -8 -8 -9 -9 -9 -9 -8 -8 -7 -7 -7
6 5 5 5 5 4 3 3 1 0 0 -0 -1 -1 -1 -1 -2 -2 -2 -3 -3 -4 -4 -5 -5 -6 -6 -7 -7 -8 -8 -8 -8 -8 -8 -9 -9 -8 -8 -8 -8 -8 -7
5 5 5 4 3 2 2 1 0 0 -1 -0 1 0 -1 -1 -2 -2 -3 -3 -4 -5 -5 -6 -6 -7 -8 -8 -8 -8 -8 -8 -8 -8 -7 -8 -8 -7 -8 -8 -8 -8 -7
5 5 4 4 3 1 1 0 1 1 1 1 -0 -0 -1 -2 -3 -3 -4 -5 -5 -5 -6 -6 -8 -8 -9 -9 -8 -8 -8 -8 -7 -8 -8 -8 -8 -8 -7 -7 -8 -8 -8
5 4 3 3 2 1 0 1 1 1 -0 0 -1 -1 -2 -3 -3 -4 -5 -5 -6 -6 -7 -7 -8 -9 -9 -9 -9 -9 -9 -9 -9 -9 -9 -8 -8 -8 -8 -7 -7 -7 -7
4 2 2 1 0 -0 -0 1 1 -0 -0 -1 -2 -3 -3 -4 -4 -5 -5 -6 -7 -7 -7 -8 -9 -9 -9 -9 -9 -9 -9 -9 -9 -9 -9 -9 -8 -8 -8 -8 -8 -8 -8
3 2 0 -0 -0 -0 0 -0 -0 -1 -1 -2 -3 -4 -4 -5 -5 -6 -7 -7 -7 -8 -8 -9 -10 -10 -10 -10 -10 -9 -9 -9 -9 -9 -9 -9 -8 -8 -8 -8 -8 -8 -8
1 -0 -0 -1 -0 -0 -1 -1 -1 -2 -2 -3 -3 -4 -5 -6 -6 -7 -7 -7 -8 -9 -9 -10 -10 -10 -10 -10 -9 -9 -9 -9 -9 -9 -8 -8 -8 -8 -8 -7 -6 -6 -6
-1 -1 -1 -1 -1 -1 -1 -2 -2 -3 -3 -3 -4 -5 -6 -6 -7 -8 -7 -8 -9 -9 -10 -10 -10 -10 -10 -10 -9 -9 -9 -9 -9 -9 -9 -9 -9 -9 -8 -7 -6 -7 -7
-1 -1 -1 -0 -1 -1 -2 -3 -3 -3 -4 -4 -5 -5 -6 -7 -8 -8 -9 -9 -9 -10 -10 -10 -10 -11 -10 -10 -9 -9 -8 -9 -9 -9 -9 -10 -10 -9 -9 -8 -6 -7 -7

GFSMW_850_temp_003.txt.gz
Temp
19 19 19 18 17 17 16 15 14 13 13 12 12 11 11 11 11 10 10 9 9 9 9 8 7 7 7 7 7 6 6 7 7 6 6 6 6 6 7 7 7 7 8
18 18 17 17 16 16 15 15 14 13 12 12 12 11 11 10 10 10 9 9 9 9 8 8 8 7 7 7 7 6 6 6 6 5 5 5 5 6 6 7 7 7 7
18 17 17 17 16 15 15 15 14 13 12 12 12 11 10 10 10 10 9 9 9 9 8 8 7 7 7 6 6 6 6 5 5 5 5 5 5 5 5 5 5 6 6
17 17 16 16 16 15 15 14 14 13 13 12 12 11 11 11 10 10 10 10 9 9 8 7 7 7 6 6 6 6 5 5 5 5 5 5 4 4 4 4 4 5 5
17 16 16 16 15 15 14 14 14 14 13 13 12 11 11 11 11 10 10 9 9 9 7 7 7 6 6 5 5 5 5 5 4 4 4 4 4 4 3 3 3 4 4
17 16 16 16 15 15 14 14 13 13 13 13 13 12 12 11 11 10 10 9 8 8 7 7 6 6 5 5 4 3 3 3 3 3 3 3 2 2 2 2 2 3 3
16 16 16 15 15 14 14 13 13 13 12 12 12 12 12 11 11 11 10 9 8 7 7 6 5 4 4 4 3 1 2 2 2 2 2 1 1 1 1 2 2 2 2
17 16 16 15 14 13 13 12 12 12 12 12 12 12 11 11 11 11 10 9 8 6 5 5 4 3 3 2 1 -1 1 1 1 0 0 0 1 1 1 1 1 1 2
16 15 15 14 13 13 12 12 12 11 11 11 11 11 11 10 10 9 7 6 5 4 4 3 2 2 1 -0 0 0 0 0 -0 -0 -0 -0 -0 0 0 0 1 1 1
15 14 13 13 13 12 12 12 11 10 10 10 10 10 9 8 8 6 5 4 4 3 1 -0 -0 -1 -1 -0 0 0 -0 -1 -1 -1 -1 -1 -1 -1 -0 -0 -0 0 0
13 13 13 12 11 10 10 10 9 9 8 8 9 9 8 7 6 4 4 3 2 1 0 0 -1 -1 -1 -1 -1 -1 -1 -1 -1 -1 -1 -1 -1 -1 -1 -1 -1 -1 -0
13 12 11 11 10 10 9 9 8 7 7 7 7 7 6 5 4 3 2 2 1 0 -0 -1 -1 -1 -1 -1 -1 -2 -2 -2 -2 -2 -2 -2 -2 -2 -2 -2 -1 -1 -1
11 11 11 10 10 9 8 7 7 6 6 6 6 5 4 3 2 1 1 0 0 0 -0 -1 -1 -1 -1 -2 -2 -3 -3 -3 -3 -3 -3 -3 -3 -3 -3 -3 -3 -3 -2
10 10 9 9 8 7 7 6 5 6 5 5 5 4 3 2 1 1 -0 -0 -0 -1 -1 -1 -2 -2 -2 -3 -3 -3 -3 -4 -4 -4 -4 -4 -4 -4 -4 -4 -3 -3 -4
7 7 7 7 6 6 5 5 5 4 4 5 4 2 1 1 0 -0 -1 -1 -1 -1 -2 -2 -2 -2 -3 -3 -4 -4 -4 -4 -4 -4 -4 -4 -5 -5 -5 -5 -5 -5 -5
8 7 7 6 6 5 5 5 4 3 2 3 3 2 1 1 0 -1 -1 -1 -1 -2 -2 -2 -3 -3 -4 -4 -5 -5 -5 -6 -6 -6 -6 -6 -7 -7 -7 -7 -6 -7 -8
7 6 6 5 5 5 4 4 3 2 1 1 0 1 1 -1 -1 -2 -1 -1 -1 -2 -2 -3 -4 -5 -5 -5 -6 -6 -7 -7 -7 -8 -8 -8 -8 -8 -8 -8 -8 -8 -8
7 6 6 5 5 4 4 3 1 0 1 -0 -0 -0 -1 -1 -1 -1 -1 -1 -2 -3 -3 -4 -5 -5 -6 -6 -7 -8 -9 -9 -9 -8 -8 -8 -7 -7 -7 -8 -8 -8 -7
6 6 5 5 5 3 3 2 1 1 1 -0 -0 -0 -0 -0 -1 -1 -2 -3 -3 -4 -5 -6 -6 -6 -7 -8 -8 -9 -9 -9 -9 -8 -8 -8 -8 -8 -7 -8 -8 -8 -8
6 5 5 5 4 2 1 1 1 1 0 0 -0 -1 -0 -1 -2 -3 -3 -4 -5 -5 -6 -7 -7 -7 -8 -8 -9 -10 -9 -9 -9 -9 -9 -9 -9 -9 -8 -8 -8 -8 -8
5 5 4 3 2 1 -0 -1 0 0 -0 -1 -1 -1 -2 -2 -3 -4 -4 -5 -6 -7 -7 -7 -8 -8 -9 -10 -10 -10 -10 -10 -10 -10 -9 -9 -9 -9 -9 -9 -8 -8 -8
5 4 2 1 0 -0 -0 -0 -0 -1 -2 -1 -2 -2 -3 -3 -4 -5 -5 -6 -7 -7 -7 -8 -8 -9 -10 -10 -10 -10 -10 -9 -9 -9 -9 -9 -9 -9 -9 -9 -8 -8 -8
3 2 0 -0 -1 -1 -1 -1 -2 -1 -2 -2 -3 -3 -4 -4 -5 -6 -6 -7 -8 -8 -9 -9 -10 -10 -10 -10 -10 -9 -9 -9 -9 -9 -9 -9 -8 -8 -8 -8 -8 -8 -8
1 -0 -1 -1 -1 -1 -1 -1 -2 -2 -2 -3 -3 -4 -5 -5 -6 -6 -8 -8 -8 -9 -10 -10 -10 -10 -10 -10 -10 -10 -9 -9 -9 -9 -9 -9 -9 -9 -9 -8 -7 -7 -7
0 -1 -1 -1 -0 -1 -1 -2 -2 -3 -3 -4 -4 -5 -5 -6 -7 -8 -8 -9 -9 -10 -10 -10 -10 -11 -11 -10 -10 -10 -9 -9 -9 -10 -10 -10 -10 -9 -9 -8 -7 -7 -7
-1 -1 -2 -1 -1 -1 -2 -2 -3 -4 -4 -4 -5 -5 -6 -7 -8 -8 -9 -9 -10 -10 -11 -10 -11 -11 -11 -10 -10 -10 -9 -9 -10 -10 -10 -10 -11 -10 -10 -9 -7 -7 -7

GFSMW_850_temp_006.txt.gz
Temp
18 19 19 18 17 17 17 16 15 15 14 14 14 13 13 12 11 11 10 10 9 10 9 9 8 8 7 7 7 7 7 7 6 6 6 6 6 6 6 6 6 6 6
18 17 17 17 17 17 16 16 15 14 14 14 13 13 12 12 11 11 10 10 9 9 9 9 9 8 7 7 7 7 6 6 6 6 5 5 5 5 5 5 5 6 6
18 17 17 17 16 16 15 15 14 14 14 13 13 12 12 12 12 11 11 10 10 9 9 9 9 8 7 7 7 6 6 6 5 5 4 4 4 4 4 4 4 4 5
17 17 16 16 16 15 15 14 14 14 13 13 13 12 12 12 12 12 11 10 10 10 9 8 8 7 7 6 6 6 5 5 5 5 4 4 3 3 2 3 3 3 3
17 16 16 16 15 15 14 14 14 13 13 12 12 12 12 12 11 11 11 11 10 10 9 8 8 7 7 6 5 5 4 4 4 4 4 3 3 3 2 1 2 2 2
16 16 16 15 15 14 13 13 12 12 12 12 12 12 11 11 11 11 11 11 10 10 9 8 7 7 6 6 5 3 3 3 3 2 2 2 2 1 1 1 1 1 1
16 16 15 15 14 14 13 13 12 12 12 12 11 12 11 11 11 11 10 10 9 9 7 7 6 5 4 4 3 3 2 0 1 1 1 1 1 1 0 0 0 0 0
15 15 14 13 13 13 12 12 12 12 12 11 11 11 10 10 10 10 9 9 7 6 5 4 3 2 2 2 0 -0 -0 -0 0 1 1 0 0 -0 -0 -0 -0 -0 -1
14 14 13 12 12 12 11 11 10 10 10 10 9 9 9 9 8 8 8 7 5 4 3 3 2 0 -0 -0 0 -0 -0 -0 0 0 -0 -1 -1 -1 -1 -1 -1 -1 -1
13 12 12 11 11 11 11 11 11 9 9 8 7 7 7 7 7 7 6 4 4 3 3 1 -1 -0 -1 -1 -1 -1 -1 -1 -1 -1 -1 -1 -1 -1 -1 -1 -1 -1 -1
11 11 11 11 10 9 9 8 7 7 7 7 6 6 6 6 6 5 4 3 3 3 1 1 0 0 -0 -1 -1 -1 -1 -1 -2 -2 -2 -2 -2 -2 -2 -2 -2 -2 -2
11 11 10 9 9 9 8 7 7 7 6 5 5 5 5 5 4 3 3 2 1 1 0 0 -0 -1 -1 -1 -1 -2 -2 -2 -3 -3 -3 -3 -3 -3 -3 -3 -3 -3 -2
10 9 9 9 8 8 8 7 6 5 5 4 4 4 4 3 3 2 2 2 1 0 0 -0 -1 -1 -2 -2 -2 -3 -3 -3 -3 -4 -4 -4 -4 -4 -4 -4 -4 -4 -4
9 8 8 8 7 7 6 6 5 4 4 4 3 3 2 2 1 1 0 0 -0 -0 -0 -1 -1 -2 -2 -2 -3 -3 -4 -4 -4 -4 -4 -5 -5 -5 -5 -5 -5 -5 -5
8 8 8 7 7 6 6 5 4 4 3 2 2 2 1 1 0 -0 -1 -1 -1 -1 -1 -2 -2 -2 -3 -3 -4 -4 -5 -5 -5 -5 -5 -5 -6 -6 -6 -6 -6 -6 -6
8 8 8 7 6 6 5 4 4 3 2 1 1 1 -0 -1 -1 -1 -2 -1 -2 -1 -1 -2 -2 -3 -3 -4 -5 -5 -6 -6 -6 -6 -6 -7 -7 -7 -7 -7 -7 -7 -7
8 7 7 6 6 6 5 4 3 2 1 0 -0 -1 -1 -1 -1 -1 -2 -2 -2 -2 -2 -3 -3 -4 -5 -6 -6 -6 -7 -7 -7 -8 -8 -8 -8 -8 -8 -8 -7 -7 -7
7 7 6 5 5 4 3 3 2 1 0 -0 -1 -1 -1 -2 -2 -2 -2 -2 -2 -2 -3 -4 -5 -6 -6 -7 -7 -8 -8 -8 -9 -9 -9 -9 -8 -8 -8 -8 -8 -8 -7
7 6 5 5 4 3 2 1 1 1 0 -0 -1 -2 -2 -3 -3 -3 -2 -3 -3 -4 -4 -5 -6 -7 -7 -8 -8 -8 -9 -9 -9 -9 -9 -9 -9 -9 -9 -9 -9 -9 -8
5 5 4 4 3 2 1 0 -0 -0 -1 -2 -2 -3 -2 -3 -3 -3 -4 -4 -5 -5 -6 -7 -7 -8 -8 -8 -8 -9 -10 -10 -10 -9 -9 -9 -9 -9 -9 -9 -9 -9 -8
5 4 3 2 1 0 -1 -2 -1 -1 -3 -3 -2 -2 -2 -3 -3 -4 -5 -5 -6 -6 -7 -8 -8 -8 -9 -9 -9 -9 -10 -10 -9 -9 -9 -9 -9 -9 -9 -9 -9 -9 -8
4 3 2 0 0 -0 -1 -2 -1 -2 -2 -2 -2 -3 -3 -4 -4 -5 -6 -6 -7 -8 -8 -9 -9 -9 -9 -9 -9 -10 -10 -9 -9 -9 -9 -9 -9 -9 -8 -8 -9 -9 -9
2 2 0 -1 -1 -1 -1 -1 -1 -2 -2 -3 -3 -3 -4 -4 -5 -6 -7 -7 -8 -9 -9 -10 -10 -10 -10 -9 -10 -10 -9 -9 -9 -9 -10 -10 -9 -9 -9 -8 -8 -8 -8
1 0 -1 -1 -1 -1 -1 -1 -2 -2 -3 -3 -3 -4 -4 -5 -6 -7 -8 -9 -9 -9 -10 -10 -10 -11 -10 -10 -10 -10 -10 -9 -9 -9 -10 -10 -10 -10 -10 -9 -8 -7 -7
0 -1 -1 -2 -2 -1 -1 -2 -2 -3 -3 -4 -4 -5 -5 -6 -7 -8 -9 -9 -10 -10 -11 -11 -11 -11 -11 -10 -10 -10 -10 -9 -9 -10 -10 -10 -11 -10 -9 -8 -7 -7 -7
-0 -1 -2 -2 -2 -2 -2 -2 -3 -3 -4 -4 -5 -6 -7 -7 -8 -8 -9 -10 -10 -10 -11 -11 -11 -11 -11 -11 -11 -10 -10 -10 -9 -10 -11 -11 -11 -11 -10 -9 -8 -8 -7

GFSMW_850_temp_009.txt.gz
Temp
19 19 19 18 18 17 16 16 15 15 14 14 14 13 13 13 12 12 12 11 11 11 11 10 9 9 9 9 8 8 8 7 7 7 7 8 8 8 7 7 6 6 6
18 17 17 17 17 16 16 15 15 15 14 14 13 13 13 12 12 12 12 11 11 11 11 10 10 9 9 9 8 8 8 7 7 6 6 6 6 7 7 6 6 5 4
17 17 17 17 16 16 15 15 15 14 14 13 13 12 12 12 12 12 12 12 11 11 10 10 10 9 9 9 8 8 7 7 6 6 5 4 4 5 5 5 5 4 4
17 17 17 16 16 15 15 15 14 14 13 13 12 12 12 11 11 11 11 11 11 11 10 10 10 9 8 8 7 7 6 6 6 5 4 4 3 2 3 4 3 3 3
16 16 16 16 15 15 15 14 14 13 12 12 12 12 12 12 11 11 10 11 11 10 9 9 9 9 7 7 6 5 4 4 5 4 3 3 2 2 2 1 3 3 2
16 16 15 15 15 14 14 13 12 12 12 11 12 12 11 11 11 11 10 10 10 10 10 9 8 7 6 5 4 3 3 3 2 2 1 0 -0 -0 1 1 1 1 1
16 15 15 14 13 13 12 12 12 12 11 11 11 11 11 10 9 9 9 8 8 8 8 7 6 6 5 3 2 0 0 0 -0 -1 -0 0 -0 -0 0 -0 -0 -0 -0
15 15 13 12 12 12 11 11 11 11 11 11 10 9 9 8 8 7 7 7 7 7 5 5 4 3 2 -1 -1 -1 -0 -0 -0 -1 -1 -0 -0 -0 -1 -1 -1 -1 -1
12 12 12 12 11 10 10 10 10 10 10 8 7 7 7 6 6 6 6 6 6 6 4 3 1 0 -1 -0 -0 -0 -1 -3 -2 -1 -1 -1 -1 -1 -1 -1 -1 -1 -2
11 11 11 11 10 10 10 9 9 8 8 7 7 6 5 5 5 5 5 5 4 3 2 1 2 1 -0 -0 -1 -1 -1 -1 -1 -1 -2 -2 -2 -2 -2 -2 -2 -2 -2
11 10 10 10 9 9 9 8 7 7 7 6 5 5 4 4 4 4 4 4 2 1 1 1 0 0 -1 -1 -1 -1 -1 -2 -2 -2 -2 -2 -3 -3 -3 -3 -3 -3 -3
10 10 10 9 9 8 7 7 7 6 6 5 4 4 4 4 3 3 3 2 2 0 0 0 0 -0 -1 -1 -2 -2 -2 -2 -3 -3 -3 -3 -3 -4 -4 -4 -4 -4 -4
9 9 9 8 8 7 7 7 6 5 4 4 4 4 3 2 2 2 1 1 0 -0 -1 -1 -1 -1 -2 -2 -2 -2 -3 -3 -3 -4 -4 -4 -4 -4 -4 -4 -5 -5 -5
8 8 8 7 7 7 6 6 5 5 4 4 3 3 2 1 1 0 -0 -1 -1 -2 -2 -1 -1 -1 -2 -2 -2 -3 -3 -4 -4 -5 -5 -5 -5 -5 -5 -6 -6 -6 -6
8 7 7 7 7 6 6 6 5 4 3 3 2 0 0 0 -1 -1 -2 -2 -2 -2 -2 -1 -2 -2 -2 -3 -4 -4 -5 -5 -6 -6 -6 -6 -6 -6 -6 -7 -7 -7 -7
8 7 7 7 6 6 6 5 4 3 2 1 0 -1 -1 -2 -2 -2 -2 -3 -3 -3 -3 -3 -3 -3 -3 -4 -5 -6 -6 -6 -6 -7 -7 -7 -7 -7 -8 -8 -8 -8 -9
7 6 6 6 6 5 4 3 3 2 1 -0 -0 -1 -1 -2 -2 -3 -3 -3 -3 -3 -3 -3 -4 -4 -4 -5 -6 -7 -7 -7 -7 -7 -8 -8 -9 -9 -9 -8 -8 -8 -8
5 5 5 6 6 4 3 2 1 1 0 -1 -2 -2 -2 -3 -3 -3 -2 -3 -3 -4 -4 -4 -4 -5 -6 -7 -7 -7 -7 -8 -8 -9 -9 -9 -9 -9 -9 -9 -10 -10 -9
3 3 4 4 4 3 2 1 0 -1 -2 -3 -3 -3 -3 -2 -2 -3 -3 -4 -4 -5 -5 -5 -6 -7 -7 -8 -8 -8 -8 -9 -9 -9 -9 -9 -9 -9 -9 -9 -10 -9 -9
4 4 3 4 3 1 -0 0 -1 -2 -3 -2 -2 -2 -2 -3 -3 -4 -4 -5 -5 -5 -6 -6 -7 -8 -8 -8 -9 -9 -9 -10 -10 -9 -9 -9 -9 -9 -9 -9 -9 -9 -9
4 2 3 2 1 -0 -0 -1 -1 -2 -2 -2 -3 -3 -3 -3 -4 -4 -5 -5 -6 -6 -7 -7 -8 -8 -9 -9 -9 -9 -10 -10 -10 -9 -9 -9 -10 -10 -9 -9 -9 -8 -8
2 3 1 0 -1 -1 -1 -1 -2 -2 -2 -2 -3 -3 -4 -4 -5 -5 -6 -6 -7 -7 -8 -8 -8 -8 -9 -9 -9 -10 -10 -10 -10 -9 -9 -9 -10 -10 -10 -10 -9 -9 -9
2 1 0 -1 -1 -1 -3 -2 -2 -3 -3 -3 -3 -4 -4 -5 -5 -6 -7 -7 -8 -8 -9 -10 -10 -10 -10 -10 -10 -10 -10 -10 -9 -9 -10 -10 -10 -10 -10 -10 -9 -9 -8
2 1 -1 -1 -1 -2 -3 -3 -3 -3 -3 -4 -4 -4 -5 -5 -6 -7 -8 -8 -9 -9 -10 -10 -11 -11 -11 -10 -10 -11 -10 -10 -10 -10 -10 -10 -11 -11 -10 -9 -9 -8 -8
1 -0 -1 -1 -1 -2 -2 -2 -3 -3 -4 -4 -5 -5 -6 -7 -7 -8 -8 -9 -10 -10 -11 -11 -11 -12 -11 -11 -11 -11 -10 -10 -10 -10 -10 -11 -11 -10 -10 -9 -9 -8 -7
0 -1 -1 -1 -2 -2 -2 -2 -3 -3 -4 -4 -5 -5 -6 -7 -8 -8 -9 -9 -10 -10 -11 -11 -12 -12 -12 -12 -11 -11 -11 -10 -10 -10 -11 -11 -12 -11 -11 -10 -9 -9 -8